Location: Zagreb
(45.8000°N, 16.0000°E)
Time: 19:41:13
(UTC+02:00)

A-11 Canister half - Pass Details

Date: 15 August 2022
Orbit: 1524 x 1684 km, 47.3° (Epoch: 05 October)

Event Time Altitude Azimuth Distance (km) Brightness Sun altitude
Rises 11:22:21 0° 292° (WNW) 4,941 11.3 52.1°
Reaches altitude 10° 11:25:37 10° 289° (WNW) 3,945 10.9 52.4°
Maximum altitude 11:35:20 55° 216° (SW) 1,937 10.5 53.5°
Drops below altitude 10° 11:44:48 10° 142° (SE) 3,838 11.9 54.4°
Sets 11:47:57 0° 138° (SE) 4,800 12.1 54.7°
